This is the latest recevied weather packets stored in our database for station/object KE8GJZ-2. If no packets are shown the sender has not sent any weather packets the latest 1 day(s).
| Time | Temp. | Humidity | Pressure | Rain* | Wind** | Luminosity | Snow |
|---|---|---|---|---|---|---|---|
| 1778099234 | 12.22° C | 44% | 1012.7 hPa | 0 mm | - | 271 W/m² | - |
| 1778098627 | 12.22° C | 45% | 1012.8 hPa | 0 mm | - | 276 W/m² | - |
| 1778098020 | 12.22° C | 45% | 1012.9 hPa | 0 mm | - | 365 W/m² | - |
| 1778097717 | 11.67° C | 44% | 1012.9 hPa | 0 mm | - | 304 W/m² | - |
| 1778096807 | 12.22° C | 43% | 1013.1 hPa | 0 mm | - | 564 W/m² | - |
| 1778096503 | 11.67° C | 43% | 1012.9 hPa | 0 mm | - | 745 W/m² | - |
| 1778095898 | 11.67° C | 47% | 1012.8 hPa | 0 mm | - | 609 W/m² | - |
| 1778095291 | 11.67° C | 46% | 1012.9 hPa | 0 mm | - | 565 W/m² | - |
| 1778094988 | 11.67° C | 42% | 1013.1 hPa | 0 mm | - | 424 W/m² | - |
| 1778094078 | 11.67° C | 43% | 1012.7 hPa | 0 mm | - | 552 W/m² | - |
| 1778093471 | 12.22° C | 42% | 1013.1 hPa | 0 mm | - | 734 W/m² | - |
| 1778092866 | 11.67° C | 44% | 1013 hPa | 0 mm | - | 707 W/m² | - |
| 1778090441 | 12.22° C | 45% | 1013.2 hPa | 0 mm | - | 350 W/m² | - |
| 1778089533 | 12.22° C | 48% | 1013.1 hPa | 0 mm | - | 762 W/m² | - |
| 1778085891 | 11.11° C | 45% | 1013.4 hPa | 0 mm | - | 498 W/m² | - |
| 1778085589 | 11.11° C | 44% | 1013.3 hPa | 0 mm | - | 285 W/m² | - |
| 1778085284 | 11.11° C | 44% | 1013.4 hPa | 0 mm | - | 273 W/m² | - |
| 1778084676 | 10.56° C | 52% | 1013.2 hPa | 0 mm | - | 448 W/m² | - |
| 1778083158 | 10.56° C | 47% | 1013.3 hPa | 0 mm | - | 462 W/m² | - |
| 1778082855 | 10.56° C | 48% | 1013.5 hPa | 0 mm | - | 420 W/m² | - |
| 1778081737 | 10.56° C | 46% | 1013.7 hPa | 0 mm | - | 397 W/m² | - |
| 1778080527 | 10.56° C | 49% | 1013.8 hPa | 0 mm | - | 462 W/m² | - |
| 1778080224 | 10° C | 48% | 1013.5 hPa | 0 mm | - | 453 W/m² | - |
| 1778079314 | 10° C | 46% | 1013.7 hPa | 0 mm | - | 391 W/m² | - |
| 1778078708 | 10° C | 45% | 1013.7 hPa | 0 mm | - | 353 W/m² | - |
* Rain latest hour (hover to see other rain measurements)
** Current wind speed in m/s (hover to see current wind gust speed)